Location: downtown San Diego
(32.7310°N, 117.1990°W)
Time: 18:03:01
(UTC-07:00)

Cosmos 1975 - Pass Details

Date: 19 May 2017
Orbit: 544 x 564 km, 82.5° (Epoch: 26 May)

Event Time Altitude Azimuth Distance (km) Brightness Sun altitude
Rises 20:41:48 0° 8° (N) 2,733 6.7 -11.5°
Reaches altitude 10° 20:44:14 10° 21° (NNE) 1,838 5.6 -11.9°
Maximum altitude 20:47:40 26° 79° (E) 1,116 4.0 -12.5°
Enters shadow 20:49:19 20° 116° (ESE) 1,321 4.1 -12.8°
